Location: Monrovia
(34.7865°N, 86.7139°W)
Time: 00:48:46
(UTC+00:00)

Cosmos 1455 - Pass Details

Date: 14 July 2020
Orbit: 500 x 521 km, 82.5° (Epoch: 12 August)

Event Time Altitude Azimuth Distance (km) Brightness Sun altitude
Rises 01:52:25 0° 348° (NNW) 2,651 6.6 -9.8°
Reaches altitude 10° 01:54:34 10° 345° (NNW) 1,761 5.7 -10.2°
Maximum altitude 01:58:22 59° 266° (W) 608 2.8 -10.8°
Drops below altitude 10° 02:02:09 10° 187° (S) 1,749 4.6 -11.4°
Enters shadow 02:03:49 - 184° (S) 2,430 5.3 -11.7°
